Regional Weather Roundup
Issued by NWS Wakefield, VA

Home | Current Version | Previous Version | Text Only | Print | Product List | Glossary On
Versions: 1 2 3 4 5 6 7 8 9 10 11 12 13 14 15 16 17 18 19 20 21 22 23 24 25 26 27 28 29 30 31 32 33 34 35 36 37 38 39 40 41 42 43 44 45 46 47 48 49 50
000
ASUS41 KAKQ 270910
RWRAKQ

REGIONAL WEATHER ROUNDUP
NATIONAL WEATHER SERVICE WAKEFIELD VA
400 AM EST SAT DEC 27 2014

Note: "fair" indicates few or no clouds below 12,000 feet with no
significant weather and/or obstructions to visibility. * = Denotes
station may not report precipitation (e.g., rain,snow,etc.),
thunder or fog.

VAZ042-051-052>054-056-271000-
NORTHERN VIRGINIA

CITY           SKY/WX    TMP DP  RH WIND       PRES   REMARKS
WASH NATIONAL  MOCLDY    37  31  78 CALM      30.26S
DULLES         MOCLDY    28  26  92 W3        30.25R
FORT BELVOIR   MOCLDY    29  28  95 NW2       30.26F
QUANTICO       PTCLDY    32  29  88 W3        30.27F
FREDERICKSBRG* MOCLDY    32  32 100 CALM      30.25F
STAFFORD*      MOCLDY    28  28 100 CALM      30.30R
WARRENTON      PTCLDY    30  30 100 CALM      30.25R
CULPEPER*      MOCLDY    30  28  93 CALM      30.25S
MANASSAS*      PTCLDY    28  28 100 CALM      30.26R
LEESBURG*      PTCLDY    32  32 100 CALM      30.26R
WINCHESTER     PTCLDY    41  27  56 SW3       30.22S
FRONT ROYAL*   MOSUNNY   36  30  80 CALM      30.23S
LURAY*         MOSUNNY   34  32  93 CALM      30.25R
$$

VAZ048-049-060>072-079>083-271000-
CENTRAL AND SOUTH CENTRAL VIRGINIA

CITY           SKY/WX    TMP DP  RH WIND       PRES   REMARKS
RICHMOND       PTCLDY    36  31  82 CALM      30.26S
CHESTERFIELD*  SUNNY     30  18  59 CALM      30.27S
PETERSBURG*    CLEAR     31  30  99 CALM      30.28S
HANOVER        FAIR      30  29  96 CALM      30.26F FOG
TAPPAHANNOCK*  FAIR      37  32  84 CALM      30.27R
QUINTON*       SUNNY     30  29  96 CALM      30.27S
CHARLOTTSVILLE PTCLDY    32  30  92 W3        30.24R
GORDONSVILLE*  MOSUNNY   30  28  94 CALM      30.23S
ORANGE*        PTCLDY    32  30  93 CALM      30.27R
LOUISA*        PTCLDY    30  28  93 CALM      30.24R
BUMPASS*       MOSUNNY   31  30  96 CALM      30.25S
FARMVILLE*     CLEAR     35  35 100 CALM      30.24S
CREWE*         MOSUNNY   34  32  92 CALM      30.25S
FORT PICKETT*  MOSUNNY   37  33  87 CALM      30.25S
CHASE CITY*    MOSUNNY   34  34 100 CALM      30.25F
CLARKSVILLE*   MOSUNNY   34  32  93 S6        30.25F
SOUTH HILL*    PTCLDY    34  33  94 S5        30.32F
LAWRENCEVILLE* MOSUNNY   35  34  95 CALM      30.26F
EMPORIA*       CLEAR     32  32 100 CALM      30.28F
$$

VAZ088>098-271000-
SOUTHEAST VIRGINIA

CITY           SKY/WX    TMP DP  RH WIND       PRES   REMARKS
NORFOLK        CLEAR     33  31  92 SW6       30.28F
VIRGINIA BEACH CLEAR     35  32  88 SW3       30.28F
NORFOLK NAVAL  CLEAR     40  34  79 S5        30.29F
WEST POINT*    CLEAR     32  29  90 CALM      30.28F
SALUDA*        FAIR      33  32  99 SW3       30.26F
NEWPORT NEWS   CLEAR     35  31  85 CALM      30.28S
LANGLEY AFB    CLEAR     34  33  96 SW3       30.28S
FORT EUSTIS    CLEAR     35  35 100 VRB1      30.26F
WILLIAMSBURG*  CLEAR     36  36 100 S3        30.28F
HR EXEC AP*    SUNNY     28  25  86 CALM      30.31S
FRANKLIN*      CLEAR     32  32 100 CALM      30.28F
WAKEFIELD      CLEAR     32  29  88 CALM      30.27F FOG
$$

VAZ020-022-025-037-045-271000-
WEST CENTRAL AND SOUTHWEST VIRGINIA

CITY           SKY/WX    TMP DP  RH WIND       PRES   REMARKS
STAUNTON*      PTCLDY    32  28  85 CALM      30.26S
WAYNESBORO*    MOSUNNY   32  26  78 S3        30.23S
HOT SPRINGS VA PTCLDY    45   5  19 W17       30.21R
LYNCHBURG      CLEAR     32  30  92 CALM      30.26S
DANVILLE       PTCLDY    34  30  85 S5        30.24F
SOUTH BOSTON*  MOSUNNY   30  29  95 CALM      30.25F
MARTINSVILLE   PTCLDY    32  32 100 CALM      30.28R
ROANOKE        PTCLDY    33  27  78 VRB3      30.27F
BLACKSBURG     PTCLDY    30  26  86 CALM      30.28F
DUBLIN*        MOCLDY    33  31  90 CALM      30.27R
MARION*        MOCLDY    38  24  57 CALM      30.28S
HILLSVILLE*    MOCLDY    40  28  60 CALM      30.25S
RICHLANDS*     LGT RAIN  40  27  61 W10       30.26R
WISE*          CLOUDY    45  19  36 S5        30.24F
ABINGDON*      CLOUDY    43  30  60 CALM      30.26S
$$

MDZ021>025-VAZ099-100-271000-
SOUTHERN MARYLAND AND THE DELMARVA PENINSULA

CITY           SKY/WX    TMP DP  RH WIND       PRES   REMARKS
PATUXENT RIVER PTCLDY    36  32  85 W7        30.25S
BAY BRIDGE APT   N/A     34  34 100 CALM      30.25S
LEONARDTOWN    PTCLDY    37  34  87 SW5       30.27S
DOVER          PTCLDY    34  33  94 SW1       30.23R
GEORGETOWN     PTCLDY    37  35  92 CALM      30.25S
EASTON         PTCLDY    35  35 100 CALM      30.29R
CAMBRIDGE        N/A     34  32  93 CALM      30.25S VSB 1/2
SALISBURY      PTCLDY    32  29  88 CALM      30.26S FOG
OCEAN CITY     CLEAR     39  36  89 W7        30.26F
WALLOPS ISLAND CLEAR     40  38  93 W6        30.27F
ACCOMACK*      CLEAR     37  36  93 SW5       30.27S
$$

NCZ012>017-030>032-271000-
NORTH CENTRAL AND EASTERN NORTH CAROLINA

CITY           SKY/WX    TMP DP  RH WIND       PRES   REMARKS
ROANOKE RAPIDS MOSUNNY   32  32 100 S3        30.28F
RALEIGH        MOCLDY    33  30  88 CALM      30.28F
ELIZABETH CITY CLEAR     37  34  89 CALM      30.29S
AHOSKIE*       CLEAR     31  30  96 CALM      30.29F
EDENTON*         N/A     35  34  96 CALM      30.29F FOG
CURRITUCK*     CLEAR     37  36  96 CALM      30.29F
KILL DEVIL HLS CLEAR     43  41  93 CALM      30.28F
MANTEO         FOG       36  36 100 CALM      30.29F VSB 3/4
CAPE HATTERAS  PTCLDY    38  38 100 N5        30.30S
TARBORO*       SUNNY     33  33  98 CALM      30.29F
GOLDSBORO      PTCLDY    33  33  99 CALM      30.28F FOG
WASHINGTON     CLEAR     35  34  95 CALM      30.30S
GREENVILLE     CLEAR     34  34 100 CALM      30.30S FOG
NEW BERN       PTCLDY    34  30  85 CALM      30.31F
WILMINGTON     CLEAR     36  34  92 CALM      30.29F
$$

VAZ048-271000-
ELSEWHERE

CITY           SKY/WX    TMP DP  RH WIND       PRES   REMARKS
HARRISBURG PA  MOCLDY    28  25  88 CALM      30.24S
BALTIMORE      MOCLDY    32  29  88 CALM      30.24S
ANNAPOLIS      PTCLDY    34  32  92 CALM      30.24F
ANDREWS AFB    PTCLDY    33  30  90 SW3       30.23F
PHILADELPHIA   PTCLDY    34  30  85 CALM      30.25F
HENDERSON NC   PTCLDY    33  31  90 S3        30.27F
GREENSBORO     PTCLDY    36  31  82 SW7       30.25F
ROCKY MOUNT    CLEAR     34  32  92 CALM      30.28F
$$

VAZ100-271000-
MARINE

STATION/POSITION TIME  TEMP    WIND        PRES    WAVE   SWELL
                       AIR SEA DIR/SP/G            HT/PER HT/PER
                 (UTC) (F)     (DEG/KT/KT) (MB)    (FT/S) (FT/S)
CAPE MAY NJ      0900   42 46  260/  8/  8 1024.0R
LEWES DE         0900   38 44  240/  5/  6 1024.0F
15NM E FENWICK I 0900   45 45              1024.1F   2/13
OCEAN-CITY-INLET 0900   41 45  260/  4/  6 1024.0F
WACHAPREAGUE VA  0900   41 47  230/  3/  5 1024.8F
THOMAS POINT MD  0900   40 42  230/  2/  3 1025.6R
GOOSES REEF MD   0900   42     VRB  8/ 10  1023.5S
COVE POINT MD    0900   42     190/  2/  3 1024.2F
SOLOMONS ISLAND  0900      43                N/A
BISHOPS HEAD MD  0900   43 44  200/  7/  8 1023.9F
PINEY POINT MD   0900           CALM  /  1   N/A
POTOMAC MD       0900   42     230/  8/  8 1023.6S
CAMBRIDGE MD     0900   39 42  210/  5/  7 1024.2R
LEWISETTA VA     0900   39 44     CALM     1024.3R
RAPPAHANNOCK LGT 0900          180/  9/ 10 1025.3S
STINGRAY PT      0900   43     210/  6/  6 1025.1F
YORK RVR RNG VA  0900   43     220/  6/  6 1024.3F
YORKTOWN VA      0900   41 46  190/  2/  3 1024.8F
JAMESTOWN VA     0900   41     170/  4/  4   N/A
DOMINION TERM VA 0900   44     210/  5/  5 1025.3F
KIPTOPEKE VA     0900      50  210/  5/  6   N/A
CHES BAY BRIDGE  0900   44 45  190/  8/  9 1024.8F
CAPE HENRY VA    0900   45     210/  9/ 11 1024.0F
CHESAPEAKE LGHT  0800   47     230/ 10/ 11 1026.3S
WILLOUBY STN VA  0900   45     220/  9/ 10 1025.6F
S CRANEY ISL VA  0900          190/  4/  5 1025.4R
CAPE HENRY BUOY  0900      48                N/A     2/12   2/12
1ST LANDING BUOY 0900   45     200/  6/  6 1024.9S
CAPE CHARLES BUO 0900      47                N/A     1/12   2/12
64NM E OF VA BCH 0900   51 52  240/  8/ 10 1025.0F   2/12   2/12
DUCK PIER NC     0900   48 51  230/  6/  7 1024.8F
44100 DUCK FRF   0900      50                N/A     2/13   2/13
44056 DUCK FRF   0900      50                N/A     2/12   2/12
OREGON INLET NC  0900   47 53  280/  2/  2 1025.8F
HATTERAS NC      0900   50 56  340/  5/  6 1026.1F
DIAMOND SHLS NC  0900   56                 1025.8F   2/12
CAPE LOOKOUT NC  0900   52     360/  7/  7 1025.5F
$$


USA.gov is the U.S. government's official web portal to all federal, state and local government web resources and services.